Wind_Speed
35 37 38 40 43 45 48 49 49 47 46 45 44 45 47 48 50 50 48 46 44 42 42 42 43 44 44 45 46 47 49 50 52 54 56 57 58 59 61 62 64 65
38 39 39 39 40 42 45 46 48 50 51 51 50 50 51 51 51 49 46 44 42 42 43 43 43 44 44 45 46 47 49 51 53 54 56 57 59 60 62 63 65 66
38 41 42 43 43 43 44 44 44 45 48 50 51 51 51 50 48 47 45 44 44 44 44 44 44 44 45 46 47 49 50 52 53 55 57 58 60 61 63 64 66 67
39 43 43 44 45 44 44 44 43 43 44 46 48 48 48 48 47 47 46 46 45 45 45 45 45 46 47 48 49 51 52 53 55 56 58 60 61 62 64 65 66 67
43 45 44 45 44 44 44 44 44 45 45 47 48 49 49 48 48 48 47 47 46 45 46 46 47 47 48 50 51 52 53 55 56 58 59 61 62 63 64 65 65 65
46 46 46 46 45 45 45 46 46 47 47 48 49 49 49 49 49 48 47 47 46 46 46 47 48 49 50 51 52 54 55 56 58 59 60 61 62 62 62 63 63 64
46 48 48 48 48 47 47 47 47 48 48 48 49 49 49 49 49 48 48 47 47 47 48 49 49 50 52 53 54 55 56 57 58 58 59 59 60 60 61 62 64 66
45 47 49 50 50 50 50 49 49 49 49 49 49 50 50 50 50 50 50 49 49 49 50 50 51 52 53 53 54 55 55 56 56 56 57 57 58 60 62 63 65 67
43 45 48 49 50 51 51 51 51 51 51 51 51 51 52 52 52 52 51 50 50 51 51 51 52 52 52 53 53 53 53 53 54 55 56 58 59 62 63 65 66 67
42 43 45 47 49 50 51 51 51 51 51 52 52 52 52 52 52 51 51 51 51 51 51 51 51 51 51 51 51 51 51 52 54 55 57 59 61 63 64 65 66 68
40 42 43 45 47 48 49 50 50 51 51 51 51 51 51 51 51 51 51 51 52 51 50 50 49 49 49 49 49 50 51 53 55 57 59 60 62 63 64 65 66 67
38 40 41 42 44 45 46 48 49 49 50 50 50 50 51 51 51 51 51 51 50 49 48 48 47 47 47 48 49 51 52 54 56 58 60 61 62 63 64 65 66 67
37 38 39 40 41 43 44 45 47 48 48 49 49 50 50 50 50 50 49 49 48 48 47 46 46 46 48 49 50 52 54 56 58 59 60 61 62 63 64 65 67 68
37 38 39 40 40 41 43 44 45 46 47 47 48 48 48 48 48 48 48 48 47 47 46 45 46 47 49 50 51 53 55 57 58 59 60 61 62 63 65 66 68 69
37 38 38 39 40 41 41 42 43 43 44 45 45 46 46 46 46 46 47 47 47 47 46 46 47 48 50 51 53 54 56 57 59 59 60 61 63 65 66 67 68 69
37 38 39 39 39 39 39 40 41 41 42 43 43 44 44 45 45 46 47 48 48 48 48 47 47 49 51 52 53 54 56 58 59 60 61 62 64 66 67 67 68 68
37 38 38 38 38 37 37 38 38 38 39 41 42 43 44 46 47 48 50 51 50 49 48 47 48 51 52 52 53 55 57 58 59 60 62 64 65 66 67 67 67 68
37 37 37 37 36 35 35 35 36 37 38 40 41 44 47 50 51 52 53 54 53 51 49 50 52 52 52 52 54 56 57 59 60 61 63 65 66 66 67 67 67 68
36 36 36 35 35 34 33 34 35 36 38 40 43 46 49 52 51 51 52 55 55 56 55 55 54 53 53 53 55 56 58 59 60 62 64 65 66 66 67 67 68 69
35 35 35 34 34 33 32 33 35 38 40 43 46 48 49 50 47 46 50 54 57 60 60 57 55 54 53 54 55 56 58 59 61 63 64 65 65 66 67 68 68 68
34 34 34 34 32 31 32 34 37 39 42 44 46 47 47 47 44 43 49 56 59 62 61 59 57 55 54 55 56 57 59 60 62 64 64 65 66 67 67 67 67 68
34 34 34 34 32 32 34 35 35 37 40 43 44 45 46 48 48 49 53 59 62 62 61 59 57 56 55 56 57 59 60 62 63 64 64 65 66 66 66 66 68 69
35 36 36 36 36 35 35 34 34 36 41 45 48 48 49 51 54 56 58 60 62 62 60 58 56 56 56 57 58 60 61 63 63 64 64 65 65 65 65 67 68 70
38 38 38 38 38 37 38 38 39 41 45 49 52 51 50 52 55 57 59 60 60 59 58 56 55 55 56 58 60 61 62 63 63 64 64 64 64 65 66 67 68 70
39 40 40 40 40 41 42 43 43 44 46 50 52 53 52 53 54 56 57 58 57 56 55 54 54 55 56 59 60 61 62 63 63 63 63 63 64 65 66 67 69 70
41 41 42 42 42 43 44 45 45 45 47 50 52 53 54 54 55 55 55 54 54 54 54 53 54 55 57 59 60 60 61 62 62 62 62 63 65 66 67 68 69 69
Wind_Direction
251 250 251 253 255 256 257 259 261 262 265 267 270 272 274 276 280 284 287 289 290 289 288 288 288 288 288 289 290 291 292 292 291 290 290 290 291 292 293 294 295 296
250 249 248 251 253 255 258 261 262 263 265 267 269 272 274 277 280 283 285 287 287 287 287 288 289 289 290 291 291 291 290 290 289 290 291 292 292 293 295 296 296 297
249 248 247 249 253 257 260 263 265 266 266 267 269 271 274 276 279 282 284 286 286 287 288 289 290 290 290 290 290 290 290 290 291 291 292 293 294 295 296 296 297 297
245 248 249 252 255 257 260 262 265 267 267 268 269 271 274 277 280 282 284 285 286 288 289 289 290 290 290 290 291 291 291 292 292 292 293 294 295 296 296 296 297 297
245 249 251 253 255 257 259 261 264 266 267 269 271 273 275 277 279 281 283 285 286 287 288 289 289 290 290 291 291 291 292 292 293 293 294 295 295 296 296 297 297 298
247 249 250 252 255 257 259 261 264 266 268 269 271 273 275 276 278 280 282 284 285 286 287 288 289 290 291 291 291 292 292 293 294 294 295 295 296 297 297 298 298 298
249 249 250 252 255 257 259 261 263 265 267 269 271 272 274 276 278 280 282 284 285 286 287 288 289 290 291 291 292 292 293 293 294 295 295 296 297 298 298 298 299 300
253 252 252 253 255 257 259 261 263 264 266 268 271 273 275 277 278 280 282 283 285 286 287 288 289 290 291 292 292 293 293 294 295 295 296 297 298 298 299 300 301 303
257 256 256 256 257 258 260 261 263 265 267 269 271 273 275 276 278 280 282 283 284 286 287 288 289 290 291 292 292 293 294 295 295 296 297 298 299 300 302 303 304 305
261 260 260 259 260 261 262 263 265 267 268 270 272 273 275 276 278 280 281 282 283 285 287 288 290 290 291 292 293 294 295 295 296 297 298 300 301 303 304 305 306 306
263 263 263 263 263 263 264 265 266 267 269 270 272 274 275 277 278 279 280 281 283 285 287 288 290 291 292 292 293 294 295 296 297 299 301 303 304 305 306 306 307 307
266 266 266 266 266 266 266 266 267 268 269 271 272 274 275 276 277 278 280 282 284 286 287 289 290 291 291 292 294 296 298 299 301 302 304 305 306 306 306 307 308 309
268 267 267 268 267 267 267 267 268 269 270 271 272 273 274 276 278 279 281 283 284 286 288 289 290 291 291 293 296 300 302 303 304 305 306 306 306 307 307 308 310 311
268 268 268 268 268 268 268 269 269 270 271 272 273 275 276 278 280 281 282 284 285 287 289 290 291 292 293 297 300 303 304 304 305 306 306 307 307 308 309 310 311 312
269 269 269 269 270 270 271 271 271 272 273 274 276 277 278 279 280 281 282 284 286 288 290 291 292 295 298 301 304 305 305 304 305 306 307 307 308 309 311 312 313 313
270 271 271 272 272 273 274 273 274 275 276 276 277 278 279 279 280 282 283 285 287 289 290 292 295 300 302 304 305 305 304 304 305 306 308 309 310 311 312 313 313 314
272 273 273 274 274 274 274 274 275 276 276 278 279 280 280 281 282 284 286 287 287 289 292 297 302 304 305 305 305 305 304 304 306 309 310 310 311 312 313 313 314 314
273 274 274 274 274 273 273 274 275 276 279 281 283 284 285 286 288 291 292 291 292 295 300 305 307 306 306 306 305 304 305 306 309 310 311 311 311 312 313 314 314 314
273 273 273 273 272 273 273 274 275 277 280 282 284 285 287 290 294 296 296 296 298 302 306 308 307 306 306 306 306 306 307 309 310 310 310 310 312 313 313 314 314 315
273 272 272 272 274 274 273 272 275 278 281 283 284 285 287 292 296 296 294 294 296 300 304 306 306 306 306 307 307 307 308 309 309 309 309 311 312 313 313 314 314 316
271 271 271 272 274 274 270 272 276 280 282 284 285 287 289 291 292 289 287 289 292 297 302 305 306 307 307 307 307 307 307 308 308 308 310 311 312 313 313 314 315 317
269 269 270 271 272 271 270 272 275 276 278 279 281 283 284 285 285 284 284 287 291 296 301 304 306 307 306 306 306 306 307 307 307 308 310 311 312 313 314 315 316 317
268 269 270 271 272 272 271 270 267 265 267 271 275 279 280 281 283 285 286 289 293 297 300 303 304 304 304 304 304 305 305 306 307 308 310 311 312 313 314 315 317 317
268 269 270 271 272 272 269 267 266 265 267 271 276 281 282 281 283 285 287 290 293 296 299 300 300 301 301 302 302 303 304 305 306 308 309 310 312 313 314 316 317 317
269 270 271 271 272 271 271 272 273 274 273 275 278 281 283 284 285 286 288 290 293 294 296 297 298 299 299 299 301 302 303 305 307 308 309 310 312 313 314 315 316 317
269 270 271 271 272 273 275 278 279 279 278 277 279 281 284 287 288 289 290 291 292 293 294 295 296 297 297 298 300 301 303 305 307 307 308 310 312 313 314 315 316 317
Height
10711 10709 10710 10710 10710 10710 10709 10709 10710 10710 10710 10710 10709 10708 10706 10705 10705 10705 10704 10704 10703 10701 10700 10698 10696 10694 10692 10690 10688 10686 10684 10682 10680 10677 10675 10672 10669 10666 10663 10660 10657 10653
10704 10704 10705 10706 10705 10705 10704 10705 10706 10706 10706 10705 10704 10703 10702 10701 10701 10700 10700 10699 10698 10697 10695 10693 10691 10689 10687 10685 10683 10681 10679 10677 10674 10672 10669 10666 10663 10660 10657 10653 10650 10646
10698 10697 10700 10701 10701 10701 10700 10701 10701 10701 10701 10701 10699 10698 10698 10697 10696 10696 10695 10694 10693 10691 10690 10688 10686 10684 10682 10680 10678 10676 10674 10671 10668 10665 10662 10659 10656 10653 10650 10647 10643 10639
10692 10691 10695 10697 10696 10697 10697 10697 10697 10697 10697 10695 10694 10694 10693 10692 10692 10691 10690 10689 10688 10686 10684 10683 10681 10679 10677 10675 10673 10670 10668 10665 10662 10659 10656 10653 10650 10647 10643 10640 10636 10632
10689 10688 10691 10692 10692 10692 10692 10692 10692 10692 10691 10690 10689 10689 10688 10688 10687 10686 10685 10684 10683 10681 10679 10677 10676 10674 10672 10669 10667 10665 10662 10659 10656 10653 10650 10647 10643 10640 10637 10633 10629 10624
10687 10686 10687 10687 10688 10688 10688 10688 10688 10687 10686 10685 10684 10684 10683 10683 10682 10681 10680 10679 10677 10676 10674 10672 10670 10668 10666 10664 10661 10658 10655 10652 10650 10646 10643 10640 10637 10633 10630 10626 10622 10617
10684 10683 10683 10684 10683 10683 10683 10683 10683 10682 10681 10681 10680 10679 10678 10677 10676 10676 10675 10673 10672 10670 10669 10667 10665 10663 10660 10658 10655 10652 10649 10646 10643 10640 10637 10633 10630 10627 10623 10619 10615 10610
10680 10680 10680 10679 10679 10679 10679 10679 10678 10677 10676 10675 10675 10674 10673 10672 10671 10670 10669 10668 10666 10665 10663 10661 10659 10656 10654 10651 10649 10646 10643 10640 10637 10633 10630 10627 10623 10620 10616 10612 10607 10603
10675 10675 10675 10675 10675 10674 10674 10674 10673 10672 10671 10670 10669 10668 10667 10666 10665 10664 10663 10661 10660 10659 10657 10655 10653 10650 10648 10645 10642 10639 10637 10634 10630 10627 10624 10620 10617 10613 10609 10604 10600 10595
10670 10670 10670 10670 10670 10670 10669 10668 10667 10666 10665 10664 10663 10662 10661 10660 10659 10658 10656 10655 10654 10652 10651 10649 10647 10644 10642 10639 10636 10633 10631 10627 10624 10621 10617 10614 10610 10606 10601 10597 10592 10588
10664 10665 10665 10665 10665 10664 10664 10663 10662 10660 10659 10658 10657 10656 10655 10654 10652 10651 10650 10649 10647 10646 10645 10643 10641 10638 10636 10633 10630 10628 10625 10621 10618 10614 10611 10607 10603 10599 10594 10590 10585 10580
10659 10659 10659 10659 10659 10659 10658 10657 10656 10654 10653 10652 10651 10650 10649 10647 10646 10645 10644 10642 10641 10640 10639 10637 10635 10633 10630 10627 10625 10622 10619 10615 10611 10608 10604 10600 10596 10592 10588 10583 10579 10573
10653 10653 10653 10653 10653 10653 10652 10651 10650 10648 10647 10646 10645 10644 10643 10641 10640 10639 10637 10636 10635 10634 10633 10631 10629 10627 10624 10622 10619 10616 10612 10608 10604 10601 10597 10593 10589 10585 10581 10576 10572 10567
10647 10647 10647 10647 10647 10647 10646 10645 10644 10642 10641 10640 10639 10638 10636 10635 10634 10632 10631 10630 10629 10628 10627 10626 10623 10621 10618 10616 10613 10609 10605 10601 10598 10595 10591 10587 10583 10578 10574 10570 10565 10560
10641 10641 10641 10641 10641 10641 10640 10639 10638 10636 10635 10634 10633 10632 10630 10629 10628 10627 10625 10624 10623 10623 10621 10620 10618 10615 10612 10609 10606 10603 10599 10595 10592 10589 10585 10581 10576 10572 10567 10563 10558 10553
10636 10636 10636 10636 10636 10636 10635 10634 10632 10631 10630 10628 10627 10626 10625 10623 10622 10621 10620 10619 10618 10617 10616 10615 10612 10609 10606 10603 10600 10596 10593 10589 10586 10582 10579 10574 10569 10565 10561 10556 10551 10546
10631 10631 10630 10631 10631 10630 10629 10628 10627 10626 10624 10622 10621 10620 10619 10617 10616 10615 10614 10612 10612 10611 10610 10609 10606 10603 10600 10597 10594 10590 10587 10583 10580 10576 10572 10567 10563 10559 10554 10550 10545 10540
10626 10626 10625 10625 10625 10625 10624 10623 10622 10620 10619 10617 10616 10614 10612 10611 10610 10608 10606 10604 10604 10604 10603 10601 10599 10596 10594 10591 10588 10584 10581 10577 10573 10569 10565 10560 10556 10552 10548 10544 10539 10534
10621 10621 10620 10620 10620 10620 10619 10618 10617 10615 10614 10612 10610 10609 10607 10605 10604 10601 10598 10596 10596 10595 10595 10594 10592 10590 10588 10585 10582 10578 10574 10571 10567 10563 10559 10554 10550 10546 10542 10537 10532 10528
10617 10616 10616 10616 10615 10615 10614 10613 10611 10610 10609 10607 10605 10604 10602 10600 10599 10596 10593 10591 10589 10588 10588 10588 10587 10584 10582 10579 10575 10572 10568 10565 10561 10557 10553 10549 10544 10540 10536 10531 10526 10521
10612 10611 10611 10611 10611 10611 10609 10608 10607 10605 10604 10602 10600 10598 10596 10595 10594 10592 10589 10586 10584 10583 10582 10582 10580 10578 10575 10572 10569 10566 10563 10559 10555 10551 10547 10543 10539 10534 10530 10525 10520 10515
10607 10606 10606 10606 10606 10606 10604 10604 10603 10601 10598 10597 10595 10593 10592 10590 10588 10587 10585 10582 10580 10578 10577 10576 10574 10572 10569 10566 10563 10560 10557 10553 10549 10545 10541 10537 10533 10529 10524 10519 10514 10509
10602 10602 10601 10601 10601 10600 10599 10598 10598 10596 10594 10592 10590 10590 10589 10586 10583 10582 10580 10578 10575 10574 10572 10570 10568 10566 10564 10561 10558 10554 10551 10547 10544 10540 10536 10532 10528 10524 10519 10514 10509 10503
10597 10596 10596 10595 10595 10595 10593 10592 10592 10591 10589 10587 10585 10585 10585 10583 10580 10578 10576 10573 10572 10570 10568 10566 10564 10562 10559 10555 10552 10549 10546 10542 10538 10535 10531 10527 10523 10518 10514 10509 10504 10498
10591 10591 10591 10590 10590 10589 10588 10586 10586 10585 10584 10582 10580 10580 10579 10578 10577 10575 10572 10570 10568 10566 10564 10562 10559 10557 10554 10550 10547 10544 10540 10537 10533 10530 10526 10521 10517 10513 10508 10504 10499 10493
10586 10586 10585 10584 10584 10583 10582 10581 10580 10580 10579 10577 10576 10575 10574 10573 10571 10569 10567 10565 10563 10561 10558 10556 10554 10551 10548 10545 10542 10538 10535 10531 10528 10524 10520 10516 10512 10508 10503 10499 10494 10488